CAPE
1515 1712 1767 1608 1446 1484 1555 1516 1454 1421 1360 1380 1292 1206 1236 1222 1213 1134 1169 1206 1262 1082 983 842 649 26 0 0 0 0 0 0 0 0 0 0 0 0 0 0 0 0 0 0 0 0 1 1 0 1 0 0 0 0 0 0 1 1 1 1 2 2 5 2 0 1 2 2 3 2 2 2 2 0 0 0 1 1 1 1 2 2 2 2 3
1438 1668 1734 1564 1273 1241 1396 1403 1391 1391 1372 1274 1209 1173 1126 1054 1051 1114 1214 1236 1299 1182 887 839 714 196 168 0 0 0 0 0 0 0 0 0 0 0 0 0 0 0 0 2 2 0 0 1 0 2 2 1 0 0 0 2 1 1 2 2 1 2 3 2 1 0 1 2 2 2 2 2 2 2 0 0 0 0 1 1 2 1 1 0 1
1424 1566 1725 1609 1184 981 1038 1140 1229 1268 1372 1205 1045 1106 996 982 954 867 938 1131 1346 1272 919 692 614 263 237 200 146 0 0 0 0 0 0 0 0 0 0 0 0 0 2 1 0 0 0 0 1 0 0 0 0 0 0 1 1 1 2 1 0 2 2 2 1 0 0 0 0 0 2 1 1 2 0 0 0 0 0 1 1 1 0 0 0
1687 1468 1615 1635 1277 803 732 819 979 1087 1213 1232 974 1017 751 888 928 803 782 1052 1378 1386 1107 527 488 411 297 252 195 100 0 0 0 0 0 0 0 0 0 0 0 0 0 0 0 0 1 0 0 0 1 0 1 1 1 0 0 0 1 0 2 3 4 2 0 0 0 0 0 0 0 1 2 2 2 0 0 0 0 0 1 1 0 0 0
1594 1638 1478 1572 1499 871 532 547 714 879 978 1020 1040 910 595 599 874 844 823 1048 1340 1337 1196 583 552 504 477 410 249 63 0 0 0 0 0 0 0 0 0 0 0 0 0 0 0 0 0 0 0 0 0 0 0 0 1 0 0 0 0 0 1 1 2 2 0 0 1 2 1 0 0 1 2 2 2 0 0 0 0 0 0 1 0 0 0
1484 1582 1510 1454 1465 1356 658 354 490 659 838 703 990 740 636 298 682 931 876 992 1203 1220 1141 832 653 578 590 591 280 94 0 0 0 0 0 0 0 0 0 0 0 0 0 0 0 0 0 0 0 0 0 0 0 0 0 0 0 0 0 0 1 1 0 0 1 0 0 2 1 1 0 1 2 0 0 0 0 0 0 0 0 0 0 0 0
1475 1503 1493 1352 1354 1356 1171 536 343 516 758 518 706 651 610 280 200 703 825 914 1050 1111 1002 660 700 642 659 509 259 0 0 0 0 0 0 0 0 0 0 0 0 0 0 0 0 0 0 0 0 0 0 0 0 0 0 0 0 0 0 0 1 2 1 0 0 1 1 0 0 0 0 0 1 1 0 0 0 0 0 0 0 0 0 0 0
1092 1243 1415 1359 1239 1266 1247 999 453 459 690 720 396 606 529 428 38 284 586 541 634 840 610 671 710 737 694 0 0 0 0 0 0 0 0 0 0 0 0 0 0 0 0 0 0 0 0 0 0 0 0 0 0 0 0 1 0 0 0 0 0 1 0 0 0 0 0 0 0 1 0 0 0 1 0 0 0 0 0 0 0 0 0 0 0
1071 1080 1092 1147 1165 1148 1178 1112 694 455 614 722 526 363 502 460 283 231 221 28 146 482 602 685 743 753 546 0 0 0 7 0 0 0 0 0 0 0 0 0 0 0 0 0 0 0 0 0 0 0 0 0 0 0 0 0 0 0 0 0 0 0 0 0 0 0 0 0 0 3 0 0 0 1 1 0 0 0 0 0 0 0 0 0 0
1006 985 804 849 860 933 964 1071 873 540 490 561 581 441 327 384 342 230 251 26 9 428 674 709 778 722 503 168 0 82 257 0 0 0 0 0 0 0 0 0 0 0 0 0 0 0 0 0 0 0 0 0 0 0 0 0 0 0 0 0 0 0 0 0 0 0 0 0 0 0 1 0 0 1 1 0 0 0 0 0 0 0 0 0 0
861 798 772 700 585 572 774 781 805 762 509 458 401 462 301 181 240 284 251 17 398 509 585 716 746 634 586 446 0 17 267 0 0 0 0 0 0 0 0 0 0 0 0 0 0 0 0 0 0 0 0 0 0 0 0 0 0 0 0 0 0 0 0 0 0 0 0 0 0 0 0 0 0 0 0 1 0 0 0 0 0 0 0 0 0
692 616 535 523 512 480 509 394 610 710 646 500 430 421 387 282 279 356 224 0 1 200 355 610 645 594 602 528 369 376 79 0 0 0 0 0 0 0 0 0 0 0 0 0 0 0 0 0 0 0 0 0 0 0 0 0 0 0 1 1 1 0 0 0 0 0 0 0 0 0 0 0 0 0 0 0 0 0 0 0 0 0 0 0 0
557 503 580 614 428 506 431 360 399 384 591 614 498 364 383 411 354 306 196 5 4 0 329 587 628 612 604 577 477 405 324 193 0 0 0 0 0 0 0 0 0 0 0 0 0 0 0 0 0 0 0 0 0 0 0 0 0 0 4 3 0 0 0 0 0 0 0 0 0 0 0 0 0 0 0 0 0 0 0 0 0 0 0 0 0
776 576 574 533 445 424 441 453 441 370 311 729 678 520 512 443 370 357 278 270 13 0 20 254 369 491 540 511 463 435 373 258 132 0 0 0 0 0 0 0 0 0 0 0 0 0 0 0 0 0 0 0 0 0 0 0 0 0 0 2 2 0 0 1 0 0 0 0 0 0 0 0 0 0 0 0 0 0 0 0 0 0 0 0 0
791 732 696 623 579 557 553 497 438 434 344 489 767 567 498 471 400 378 310 394 359 128 32 87 91 378 442 375 390 473 488 366 2 0 0 0 0 0 0 0 0 0 0 0 0 0 0 0 0 0 0 0 0 0 0 0 0 0 0 0 0 0 0 0 0 0 0 0 0 0 0 0 0 0 0 0 0 0 0 0 0 0 0 0 0
830 811 780 658 603 598 593 540 542 444 436 359 563 549 514 419 404 384 346 409 339 334 130 272 270 374 380 364 368 43 370 414 356 0 0 0 0 0 0 0 0 0 0 0 0 0 0 0 0 0 0 0 0 0 0 0 0 0 0 0 0 0 0 0 0 0 0 0 0 0 0 0 0 0 0 0 0 0 0 0 0 0 0 0 0
889 887 864 801 685 582 553 590 571 584 578 524 646 592 576 508 428 329 284 317 337 313 271 239 299 320 214 263 401 194 11 0 0 10 0 0 0 0 0 0 0 0 0 0 0 0 0 0 0 0 0 0 0 0 0 0 0 0 0 0 0 0 0 0 0 0 0 0 0 0 0 0 0 0 0 0 0 0 0 0 0 0 0 0 0
892 872 843 837 787 670 637 600 558 540 697 789 809 761 615 569 431 344 302 265 331 286 280 228 268 380 156 142 131 115 35 0 29 88 0 0 0 0 0 0 0 0 0 0 0 0 0 0 0 0 0 0 0 0 0 0 0 0 0 0 0 0 0 0 0 0 0 0 0 0 0 0 0 0 0 1 0 0 0 0 0 0 0 0 0
866 955 940 837 752 720 785 793 756 773 862 929 940 888 767 709 506 353 301 261 217 352 270 240 210 323 349 308 2 0 0 0 16 0 28 0 0 0 0 0 0 0 0 0 0 0 0 0 0 0 0 0 0 0 0 0 0 0 0 0 0 0 0 0 0 0 0 0 0 0 1 0 0 0 0 1 0 0 0 0 0 0 0 0 0
854 981 1088 1052 835 688 718 850 954 992 1031 1070 1073 1068 990 862 678 410 254 230 223 240 298 227 79 127 309 170 3 0 0 0 0 2 0 0 5 0 0 0 0 0 0 0 0 0 0 0 0 0 0 0 0 0 0 0 0 0 0 0 0 0 0 0 0 0 0 1 0 0 4 0 0 0 0 0 0 0 0 0 0 0 0 0 0
829 967 1143 1217 1090 888 804 916 1088 1319 1382 1301 1179 1109 1020 920 773 574 442 316 200 34 5 0 14 71 31 6 208 142 0 0 0 0 0 0 0 14 31 0 0 0 0 0 0 0 0 0 0 0 0 0 0 0 0 0 0 0 0 0 0 0 0 0 0 0 0 0 0 0 1 3 1 0 0 0 2 0 0 0 0 0 0 0 0
795 896 1080 1239 1243 1044 959 1134 1288 1418 1629 1589 1399 1214 1061 924 812 708 558 548 488 32 13 0 4 9 36 102 57 19 116 48 0 0 0 0 0 0 5 9 1 0 0 0 0 0 0 0 0 0 0 0 0 0 0 0 0 0 0 0 0 0 0 0 0 0 0 0 0 0 0 0 0 1 1 0 1 2 0 0 0 0 0 0 0
773 826 924 1092 1207 1112 1042 1099 1444 1621 1635 1587 1503 1390 1234 1066 886 793 686 574 527 551 512 357 0 0 243 314 286 222 214 0 5 0 0 0 0 0 0 10 24 10 0 0 0 0 0 0 0 0 0 0 0 0 0 0 0 0 0 0 0 0 0 0 0 0 0 0 0 0 0 0 0 0 2 1 0 1 1 0 0 0 0 0 0
794 811 900 1049 1207 1186 1109 1162 1292 1600 1710 1570 1461 1398 1308 1173 1064 974 846 650 508 466 469 460 355 0 0 106 274 252 191 0 0 0 0 0 0 0 0 0 2 0 0 0 0 0 0 0 0 0 0 0 0 0 0 0 0 0 0 0 0 0 0 0 0 0 0 0 0 0 0 0 0 0 1 2 0 0 1 0 0 0 0 0 0
865 842 847 958 1134 1206 1112 1031 1174 1352 1512 1482 1402 1438 1362 1242 1162 1111 999 811 707 560 423 105 26 0 0 0 0 0 1 0 0 0 0 0 0 0 0 0 8 3 0 0 0 0 0 0 0 0 0 0 0 0 0 0 0 0 0 0 0 0 0 0 0 0 0 0 0 0 0 0 0 0 0 0 3 0 0 0 0 0 0 0 0
964 911 913 954 1006 1106 1104 1064 1146 1235 1206 1169 1234 1240 1459 1410 1322 1244 1202 1029 916 832 706 532 212 0 0 0 0 0 0 0 0 0 0 0 0 0 99 0 0 0 0 0 0 0 0 0 0 0 0 0 0 0 0 0 0 0 0 0 0 0 0 0 0 0 0 0 0 0 0 0 0 0 1 1 4 0 0 0 0 0 0 0 0
999 1037 979 945 984 976 1002 1031 1100 1134 1107 1023 935 1149 1372 1389 1398 1372 1298 1166 1071 995 919 847 656 423 0 0 0 0 0 0 0 0 0 0 86 18 149 369 16 0 0 0 0 0 27 0 0 0 0 0 0 0 0 0 0 0 0 0 0 0 0 0 0 0 0 0 0 0 0 0 0 0 0 0 0 0 0 0 0 0 0 0 0
872 920 947 946 969 1003 969 985 1045 1067 1012 860 757 1002 1206 1230 1238 1278 1309 1236 1174 1081 983 893 840 692 345 2 1 2 0 0 0 234 0 0 0 260 338 7 31 26 0 2 0 4 5 10 0 0 0 0 0 0 0 0 0 0 0 0 0 0 0 0 0 0 0 0 0 0 0 0 0 0 0 0 0 0 0 0 0 0 0 0 0
828 723 775 935 964 978 1058 1078 1021 954 892 822 735 704 711 1017 1094 1106 1136 1151 1137 1095 1001 887 847 835 749 635 484 6 0 0 0 110 244 0 0 0 159 26 13 29 8 10 275 20 18 23 23 1 0 0 0 0 0 0 0 0 0 0 0 0 0 0 0 0 0 0 0 0 0 0 0 0 0 0 0 0 0 0 0 0 0 0 0
859 761 640 806 864 938 1002 1048 1028 994 981 962 829 700 598 601 784 967 955 957 972 991 959 903 820 786 806 812 776 555 0 0 0 0 40 0 0 0 0 6 4 108 15 30 57 1 7 2 21 12 0 2 0 0 0 0 0 0 0 0 0 0 0 0 0 0 0 0 0 0 0 0 0 0 0 0 0 0 0 0 0 0 0 0 0
830 831 807 800 817 860 922 967 969 1021 1068 1076 984 782 478 556 620 760 949 928 868 805 842 879 843 786 778 814 812 758 556 119 0 0 0 0 0 0 1 10 6 36 26 80 97 2 7 9 1 4 0 1 2 0 0 0 0 0 0 0 0 0 0 0 0 0 0 0 0 0 0 0 0 0 0 0 0 0 0 0 0 0 0 0 0
850 957 965 916 857 873 844 831 858 942 1021 1012 866 626 627 666 622 543 678 894 938 803 756 828 848 809 773 762 775 748 674 504 266 0 0 0 0 3 2 9 23 26 21 278 284 300 284 79 0 0 0 0 0 0 0 0 0 0 0 0 0 0 0 0 0 0 0 0 0 0 0 0 0 0 0 0 0 0 0 0 0 0 0 0 0
931 727 878 1079 1096 1052 1019 940 924 924 942 991 892 659 611 622 616 485 350 510 843 900 779 804 874 882 840 793 782 784 731 608 453 322 7 0 0 6 11 12 27 18 88 301 348 336 306 199 323 118 0 0 0 0 0 0 0 0 0 0 0 0 0 0 0 0 0 0 0 0 0 0 0 0 0 0 0 0 0 0 0 0 0 0 0
958 919 863 780 850 857 937 983 924 920 787 897 865 773 604 559 423 350 316 429 685 764 716 733 866 974 997 925 880 891 846 747 576 435 340 270 48 45 45 40 40 46 200 292 334 298 306 312 352 330 260 0 0 0 0 0 0 0 0 0 0 0 0 0 0 0 0 0 0 0 0 0 0 0 0 0 0 0 0 0 0 0 0 0 0
1027 971 996 955 862 795 808 656 433 385 489 640 756 748 868 795 483 316 348 471 620 607 614 666 743 863 966 988 960 932 908 835 708 562 441 359 367 238 131 85 74 53 39 238 278 306 308 365 418 424 339 180 0 0 0 0 0 0 0 0 0 0 0 0 0 0 0 0 0 0 0 0 0 0 0 0 0 0 0 0 0 0 0 0 0
1111 1056 954 982 940 875 770 629 397 402 416 493 460 460 730 900 783 636 562 535 589 596 585 626 689 765 822 907 936 935 918 842 745 670 587 503 384 431 453 374 138 92 336 337 322 290 340 394 444 461 411 381 335 251 13 0 0 0 0 0 0 0 0 0 0 0 0 0 0 0 0 0 0 0 0 0 0 0 0 0 0 0 0 0 0
670 787 838 884 889 843 772 662 576 590 728 660 566 594 834 823 746 802 805 678 617 599 527 504 551 619 744 818 859 910 919 837 758 725 695 612 506 405 484 528 576 470 379 378 360 352 359 405 462 488 456 492 464 431 344 174 0 0 0 0 0 0 0 0 0 0 0 0 0 0 0 0 0 0 0 0 0 0 0 0 0 0 0 0 0
826 866 961 1027 960 862 779 715 596 550 657 744 594 628 774 879 759 751 816 805 733 675 635 594 547 551 615 722 781 828 934 829 830 750 717 673 614 513 486 536 573 531 435 338 212 418 437 441 460 501 499 487 580 595 548 444 348 52 0 0 0 0 0 0 0 0 0 0 0 0 0 0 0 0 0 0 0 0 0 0 0 0 0 0 0
1055 1076 1166 1207 1155 968 851 822 776 686 580 660 667 633 749 907 900 627 571 670 712 736 741 713 657 629 650 690 720 710 794 864 860 786 701 696 656 625 572 542 571 618 592 586 566 524 520 538 549 558 564 555 579 714 616 537 451 353 176 0 0 0 0 0 0 0 0 0 0 0 0 0 0 0 0 0 0 0 0 0 0 0 0 0 0
945 1037 1095 1112 1091 949 810 735 740 754 715 654 648 686 691 796 880 595 480 544 601 615 661 726 790 782 751 748 744 677 688 770 830 779 745 690 648 658 671 623 577 592 631 642 624 634 619 617 618 627 604 584 615 610 617 563 507 426 338 240 0 0 0 0 0 0 0 0 0 0 0 0 0 0 0 0 0 0 0 0 0 0 0 0 0
794 947 1015 1043 985 865 758 691 679 692 722 692 690 831 883 850 906 990 903 798 779 719 657 680 772 855 812 785 724 634 640 728 791 832 751 727 647 626 686 701 675 607 615 638 655 656 650 618 618 606 611 638 665 691 693 646 596 562 454 343 234 0 0 0 0 0 0 0 0 0 0 0 0 0 0 0 0 0 0 0 0 0 0 0 0
663 658 713 766 756 703 655 637 640 663 717 720 745 857 966 1021 1024 1014 990 900 846 801 749 719 758 829 807 701 612 619 650 708 774 816 776 700 700 638 647 692 717 720 680 636 632 653 656 617 622 626 645 685 737 749 720 714 688 597 535 488 367 205 0 0 0 0 0 0 0 0 0 0 0 0 0 0 0 0 0 0 0 0 0 0 0
748 653 602 585 597 600 614 627 637 607 685 760 791 870 949 993 988 995 1012 951 842 762 766 750 785 818 860 663 578 616 696 718 729 761 725 655 696 710 717 667 701 754 758 711 686 678 657 631 650 646 655 684 698 697 722 747 730 711 652 586 509 404 330 150 0 0 0 0 0 0 0 0 0 0 0 0 0 0 0 0 0 0 0 0 0
602 766 733 620 549 533 524 511 524 576 630 690 729 806 869 905 895 851 808 758 741 774 825 856 824 795 716 555 565 605 692 722 719 725 689 649 637 687 734 753 755 802 825 809 746 711 658 635 618 592 606 623 664 639 674 702 749 734 733 698 657 620 548 435 320 0 0 0 0 0 0 0 0 0 0 0 0 0 0 0 0 0 0 0 0
557 556 717 688 614 535 526 499 454 441 468 510 515 613 708 792 823 865 889 816 758 668 704 837 885 876 718 751 717 679 730 810 752 722 705 670 654 684 723 744 746 837 898 942 970 872 728 614 547 556 562 613 598 610 636 675 698 769 760 711 695 716 712 618 494 382 286 15 0 0 0 0 0 0 142 139 126 116 127 0 0 0 0 0 0
458 493 504 560 612 639 615 551 455 385 376 387 387 380 397 409 418 413 424 468 468 459 606 792 915 971 997 932 868 858 858 913 828 753 730 692 669 692 707 714 719 772 858 890 906 948 844 725 536 494 554 550 537 587 593 599 631 715 733 706 700 735 750 677 546 465 376 282 157 0 0 0 0 66 188 201 176 159 137 124 52 0 0 0 0
382 413 443 459 505 554 629 628 545 430 388 373 366 366 383 395 390 368 318 294 306 345 430 519 530 700 867 942 968 975 992 962 856 766 755 729 712 690 688 688 697 739 757 799 847 886 892 864 796 703 625 493 446 520 520 536 557 638 665 670 664 691 686 603 485 465 457 449 403 322 282 12 0 156 246 141 97 175 164 172 159 124 0 0 0
281 346 398 418 446 515 533 512 548 518 460 432 380 362 379 423 453 420 375 354 298 266 310 316 360 342 308 294 247 442 761 860 810 800 810 794 772 749 729 690 663 636 644 675 722 788 841 823 821 789 750 664 593 480 416 476 515 561 621 653 652 686 671 625 566 512 536 514 481 420 359 317 258 299 325 311 278 262 227 219 216 179 122 0 0
220 252 341 412 448 458 465 473 479 467 454 482 500 477 438 384 330 275 261 210 88 108 0 177 336 435 448 346 280 355 473 696 740 759 766 958 899 828 745 674 626 613 586 654 696 707 740 803 820 802 776 718 666 563 469 454 425 483 518 570 654 706 703 687 647 595 618 588 581 495 412 402 390 376 379 354 349 343 332 326 294 249 186 132 40
166 232 250 338 393 418 417 431 437 430 459 458 426 423 439 455 356 268 222 181 46 2 15 32 116 241 334 424 475 588 635 614 640 612 735 744 874 825 761 641 576 512 485 551 605 636 712 729 744 778 772 732 692 610 546 552 561 544 486 427 597 602 656 701 685 617 606 590 631 553 491 517 481 462 458 421 368 370 370 359 320 279 216 166 129
47 155 158 182 283 316 358 415 442 444 431 384 373 383 423 414 346 277 243 191 62 20 22 50 32 88 184 299 378 476 610 612 587 694 722 677 648 844 740 726 607 503 535 582 550 539 582 617 632 685 695 680 680 627 629 628 650 650 622 630 621 542 599 628 638 616 611 648 699 616 563 579 524 503 438 409 396 391 354 346 316 276 227 162 136
Wind_Speed
17 18 20 19 20 19 17 15 14 13 13 11 13 12 11 11 11 12 11 10 9 10 11 13 16 nan nan nan nan nan nan nan nan nan nan nan nan nan nan nan nan nan nan nan nan nan nan nan nan nan nan nan nan nan nan nan nan nan nan nan nan nan nan nan nan nan nan nan nan nan nan nan nan nan nan nan nan nan nan nan nan nan nan nan nan
18 20 20 19 20 20 17 15 14 14 14 12 12 12 11 11 11 12 12 10 10 10 11 12 15 15 14 nan nan nan nan nan nan nan nan nan nan nan nan nan nan nan nan nan nan nan nan nan nan nan nan nan nan nan nan nan nan nan nan nan nan nan nan nan nan nan nan nan nan nan nan nan nan nan nan nan nan nan nan nan nan nan nan nan nan
18 19 20 20 20 21 18 15 14 14 14 13 13 12 11 11 12 12 12 11 10 11 11 10 12 15 15 12 8 nan nan nan nan nan nan nan nan nan nan nan nan nan nan nan nan nan nan nan nan nan nan nan nan nan nan nan nan nan nan nan nan nan nan nan nan nan nan nan nan nan nan nan nan nan nan nan nan nan nan nan nan nan nan nan nan
17 18 19 20 21 21 19 17 14 14 14 14 13 12 11 10 11 12 12 13 11 11 11 11 10 13 16 14 10 nan nan nan nan nan nan nan nan nan nan nan nan nan nan nan nan nan nan nan nan nan nan nan nan nan nan nan nan nan nan nan nan nan nan nan nan nan nan nan nan nan nan nan nan nan nan nan nan nan nan nan nan nan nan nan nan
17 17 19 20 22 22 20 17 16 15 15 14 13 12 11 11 11 13 13 13 14 12 11 10 9 10 16 16 12 nan nan nan nan nan nan nan nan nan nan nan nan nan nan nan nan nan nan nan nan nan nan nan nan nan nan nan nan nan nan nan nan nan nan nan nan nan nan nan nan nan nan nan nan nan nan nan nan nan nan nan nan nan nan nan nan
20 19 19 20 22 22 20 18 16 16 15 14 13 13 12 12 11 13 12 13 13 12 12 9 6 8 15 16 14 nan nan nan nan nan nan nan nan nan nan nan nan nan nan nan nan nan nan nan nan nan nan nan nan nan nan nan nan nan nan nan nan nan nan nan nan nan nan nan nan nan nan nan nan nan nan nan nan nan nan nan nan nan nan nan nan
22 21 20 21 22 22 19 17 16 16 15 14 14 13 13 11 13 11 11 12 13 13 11 9 7 7 13 15 14 nan nan nan nan nan nan nan nan nan nan nan nan nan nan nan nan nan nan nan nan nan nan nan nan nan nan nan nan nan nan nan nan nan nan nan nan nan nan nan nan nan nan nan nan nan nan nan nan nan nan nan nan nan nan nan nan
23 23 21 21 22 22 19 16 14 15 14 15 14 13 12 10 nan 11 12 11 13 12 11 9 7 6 10 nan nan nan nan nan nan nan nan nan nan nan nan nan nan nan nan nan nan nan nan nan nan nan nan nan nan nan nan nan nan nan nan nan nan nan nan nan nan nan nan nan nan nan nan nan nan nan nan nan nan nan nan nan nan nan nan nan nan
31 31 28 23 22 21 19 15 15 14 15 16 14 12 11 9 10 10 12 nan 11 12 11 10 8 6 6 nan nan nan nan nan nan nan nan nan nan nan nan nan nan nan nan nan nan nan nan nan nan nan nan nan nan nan nan nan nan nan nan nan nan nan nan nan nan nan nan nan nan nan nan nan nan nan nan nan nan nan nan nan nan nan nan nan nan
32 36 38 38 33 28 20 13 14 15 15 16 14 11 10 8 9 10 11 nan nan 13 12 10 10 8 5 9 nan nan 14 nan nan nan nan nan nan nan nan nan nan nan nan nan nan nan nan nan nan nan nan nan nan nan nan nan nan nan nan nan nan nan nan nan nan nan nan nan nan nan nan nan nan nan nan nan nan nan nan nan nan nan nan nan nan
31 35 39 42 38 31 28 21 14 15 16 16 14 11 9 9 9 10 12 nan 12 12 12 12 11 9 5 7 nan nan 12 nan nan nan nan nan nan nan nan nan nan nan nan nan nan nan nan nan nan nan nan nan nan nan nan nan nan nan nan nan nan nan nan nan nan nan nan nan nan nan nan nan nan nan nan nan nan nan nan nan nan nan nan nan nan
35 36 37 40 37 28 24 24 23 19 16 16 15 13 9 9 9 12 12 nan nan 12 13 14 12 10 7 7 6 8 nan nan nan nan nan nan nan nan nan nan nan nan nan nan nan nan nan nan nan nan nan nan nan nan nan nan nan nan nan nan nan nan nan nan nan nan nan nan nan nan nan nan nan nan nan nan nan nan nan nan nan nan nan nan nan
37 36 33 32 28 27 27 26 27 26 20 17 17 15 12 11 12 14 14 nan nan nan 12 15 15 13 11 9 8 5 8 12 nan nan nan nan nan nan nan nan nan nan nan nan nan nan nan nan nan nan nan nan nan nan nan nan nan nan nan nan nan nan nan nan nan nan nan nan nan nan nan nan nan nan nan nan nan nan nan nan nan nan nan nan nan
36 32 29 29 29 30 30 27 26 27 29 23 20 17 16 16 16 16 16 14 nan nan nan 17 13 11 11 9 7 7 7 8 9 nan nan nan nan nan nan nan nan nan nan nan nan nan nan nan nan nan nan nan nan nan nan nan nan nan nan nan nan nan nan nan nan nan nan nan nan nan nan nan nan nan nan nan nan nan nan nan nan nan nan nan nan
35 31 31 30 29 33 32 27 25 25 27 26 23 19 18 17 17 16 17 17 14 14 nan nan nan 13 12 12 6 7 6 7 nan nan nan nan nan nan nan nan nan nan nan nan nan nan nan nan nan nan nan nan nan nan nan nan nan nan nan nan nan nan nan nan nan nan nan nan nan nan nan nan nan nan nan nan nan nan nan nan nan nan nan nan nan
38 35 34 31 30 31 33 28 25 23 21 22 24 21 20 20 19 18 17 15 15 15 14 12 15 16 10 8 9 nan 5 0 5 nan nan nan nan nan nan nan nan nan nan nan nan nan nan nan nan nan nan nan nan nan nan nan nan nan nan nan nan nan nan nan nan nan nan nan nan nan nan nan nan nan nan nan nan nan nan nan nan nan nan nan nan
37 36 34 31 31 31 31 29 29 24 22 21 22 21 20 20 19 18 17 15 14 17 16 15 13 10 14 14 13 10 nan nan nan nan nan nan nan nan nan nan nan nan nan nan nan nan nan nan nan nan nan nan nan nan nan nan nan nan nan nan nan nan nan nan nan nan nan nan nan nan nan nan nan nan nan nan nan nan nan nan nan nan nan nan nan
32 34 34 34 31 29 31 31 29 28 23 20 21 23 21 20 19 18 17 17 15 16 15 16 14 9 9 10 11 10 nan nan nan nan nan nan nan nan nan nan nan nan nan nan nan nan nan nan nan nan nan nan nan nan nan nan nan nan nan nan nan nan nan nan nan nan nan nan nan nan nan nan nan nan nan nan nan nan nan nan nan nan nan nan nan
30 32 35 35 33 32 32 33 32 30 27 24 23 22 22 22 22 20 17 16 17 13 13 11 13 10 9 11 nan nan nan nan nan nan nan nan nan nan nan nan nan nan nan nan nan nan nan nan nan nan nan nan nan nan nan nan nan nan nan nan nan nan nan nan nan nan nan nan nan nan nan nan nan nan nan nan nan nan nan nan nan nan nan nan nan
28 29 33 36 36 35 35 34 32 31 28 25 24 24 24 23 23 21 20 17 15 13 11 11 nan 8 10 8 nan nan nan nan nan nan nan nan nan nan nan nan nan nan nan nan nan nan nan nan nan nan nan nan nan nan nan nan nan nan nan nan nan nan nan nan nan nan nan nan nan nan nan nan nan nan nan nan nan nan nan nan nan nan nan nan nan
29 27 31 36 38 37 36 34 33 31 28 26 25 24 21 22 23 24 21 19 16 nan nan nan nan nan nan nan 8 7 nan nan nan nan nan nan nan nan nan nan nan nan nan nan nan nan nan nan nan nan nan nan nan nan nan nan nan nan nan nan nan nan nan nan nan nan nan nan nan nan nan nan nan nan nan nan nan nan nan nan nan nan nan nan nan
32 29 31 37 39 38 36 34 32 32 30 27 26 24 22 21 22 23 22 19 17 nan nan nan nan nan nan 12 nan nan 10 nan nan nan nan nan nan nan nan nan nan nan nan nan nan nan nan nan nan nan nan nan nan nan nan nan nan nan nan nan nan nan nan nan nan nan nan nan nan nan nan nan nan nan nan nan nan nan nan nan nan nan nan nan nan
33 31 31 36 39 37 35 33 34 34 32 30 27 25 24 23 23 23 21 19 19 18 17 18 nan nan 16 13 9 8 7 nan nan nan nan nan nan nan nan nan nan nan nan nan nan nan nan nan nan nan nan nan nan nan nan nan nan nan nan nan nan nan nan nan nan nan nan nan nan nan nan nan nan nan nan nan nan nan nan nan nan nan nan nan nan
31 31 30 34 38 36 35 33 32 33 32 32 33 32 31 28 26 23 22 21 23 23 21 20 22 nan nan 14 11 8 6 nan nan nan nan nan nan nan nan nan nan nan nan nan nan nan nan nan nan nan nan nan nan nan nan nan nan nan nan nan nan nan nan nan nan nan nan nan nan nan nan nan nan nan nan nan nan nan nan nan nan nan nan nan nan
28 27 26 29 34 34 34 33 32 33 40 43 40 37 36 32 28 26 25 26 27 26 23 20 nan nan nan nan nan nan nan nan nan nan nan nan nan nan nan nan nan nan nan nan nan nan nan nan nan nan nan nan nan nan nan nan nan nan nan nan nan nan nan nan nan nan nan nan nan nan nan nan nan nan nan nan nan nan nan nan nan nan nan nan nan
26 24 25 28 31 32 34 36 39 41 42 38 36 34 35 33 30 29 28 28 28 24 21 20 20 nan nan nan nan nan nan nan nan nan nan nan nan nan nan nan nan nan nan nan nan nan nan nan nan nan nan nan nan nan nan nan nan nan nan nan nan nan nan nan nan nan nan nan nan nan nan nan nan nan nan nan nan nan nan nan nan nan nan nan nan
27 26 29 31 32 34 37 38 38 39 39 35 34 35 36 36 34 32 30 28 26 24 23 21 19 18 nan nan nan nan nan nan nan nan nan nan nan nan 9 3 nan nan nan nan nan nan nan nan nan nan nan nan nan nan nan nan nan nan nan nan nan nan nan nan nan nan nan nan nan nan nan nan nan nan nan nan nan nan nan nan nan nan nan nan nan
34 32 30 31 34 37 39 37 37 43 47 46 48 49 46 42 39 36 30 31 28 24 24 23 20 18 17 nan nan nan nan nan nan 9 nan nan nan 12 9 nan nan nan nan nan nan nan nan nan nan nan nan nan nan nan nan nan nan nan nan nan nan nan nan nan nan nan nan nan nan nan nan nan nan nan nan nan nan nan nan nan nan nan nan nan nan
35 36 35 34 34 35 35 36 40 42 41 38 42 40 37 42 41 39 34 34 34 30 28 26 23 22 21 18 16 nan nan nan nan 11 10 nan nan nan 9 nan nan nan nan nan 2 nan nan nan nan nan nan nan nan nan nan nan nan nan nan nan nan nan nan nan nan nan nan nan nan nan nan nan nan nan nan nan nan nan nan nan nan nan nan nan nan
36 39 40 36 33 30 31 34 40 41 38 37 38 36 37 42 42 41 39 38 35 34 30 27 26 26 23 21 20 18 nan nan nan nan nan nan nan nan nan nan nan 3 nan nan nan nan nan nan nan nan nan nan nan nan nan nan nan nan nan nan nan nan nan nan nan nan nan nan nan nan nan nan nan nan nan nan nan nan nan nan nan nan nan nan nan
39 39 40 41 38 34 32 34 37 38 38 37 40 41 42 39 42 45 44 41 37 33 32 31 30 29 25 22 21 20 22 20 nan nan nan nan nan nan nan nan nan nan nan nan nan nan nan nan nan nan nan nan nan nan nan nan nan nan nan nan nan nan nan nan nan nan nan nan nan nan nan nan nan nan nan nan nan nan nan nan nan nan nan nan nan
43 43 42 41 41 41 38 34 32 35 38 39 41 40 37 37 42 47 45 44 39 35 34 34 34 32 28 24 23 23 25 25 21 nan nan nan nan nan nan nan nan nan nan 7 6 1 10 nan nan nan nan nan nan nan nan nan nan nan nan nan nan nan nan nan nan nan nan nan nan nan nan nan nan nan nan nan nan nan nan nan nan nan nan nan nan
42 41 40 41 42 41 40 37 33 34 37 40 42 39 37 37 41 44 44 46 40 36 37 35 35 34 32 28 25 24 26 25 25 24 nan nan nan nan nan nan nan nan nan 7 7 3 9 10 11 12 nan nan nan nan nan nan nan nan nan nan nan nan nan nan nan nan nan nan nan nan nan nan nan nan nan nan nan nan nan nan nan nan nan nan nan
44 40 37 37 38 39 39 39 35 35 38 40 40 39 37 37 38 41 43 46 42 35 37 35 35 37 36 33 28 26 27 25 26 26 25 23 nan nan nan nan nan nan 10 9 6 9 5 13 10 12 13 nan nan nan nan nan nan nan nan nan nan nan nan nan nan nan nan nan nan nan nan nan nan nan nan nan nan nan nan nan nan nan nan nan nan
44 41 38 38 39 38 38 31 30 34 35 35 39 38 37 36 37 38 40 42 41 37 35 34 35 39 39 36 31 31 32 28 27 28 28 24 23 21 20 nan nan nan nan 10 11 10 10 10 14 13 13 15 nan nan nan nan nan nan nan nan nan nan nan nan nan nan nan nan nan nan nan nan nan nan nan nan nan nan nan nan nan nan nan nan nan
46 43 39 38 38 36 33 31 33 30 26 26 32 35 33 35 36 36 37 38 40 39 33 31 36 41 40 37 33 32 33 30 29 29 29 27 25 23 22 23 23 nan 20 17 12 13 14 12 15 15 15 16 13 15 nan nan nan nan nan nan nan nan nan nan nan nan nan nan nan nan nan nan nan nan nan nan nan nan nan nan nan nan nan nan nan
46 45 43 42 41 40 36 33 34 33 31 31 33 34 33 34 35 35 34 35 40 42 36 30 33 38 39 37 33 34 34 30 29 29 29 27 26 26 24 24 25 26 27 24 18 16 16 13 15 18 18 16 16 16 18 22 nan nan nan nan nan nan nan nan nan nan nan nan nan nan nan nan nan nan nan nan nan nan nan nan nan nan nan nan nan
47 47 45 44 43 43 43 41 40 38 37 36 35 34 34 34 33 34 33 32 35 41 42 37 34 35 36 35 33 35 34 30 27 27 28 27 27 27 26 27 27 29 28 28 26 21 17 14 16 18 20 18 19 19 17 20 24 nan nan nan nan nan nan nan nan nan nan nan nan nan nan nan nan nan nan nan nan nan nan nan nan nan nan nan nan
47 48 48 45 44 44 45 48 47 43 40 40 39 37 36 35 34 37 37 33 31 33 37 36 32 30 32 35 34 32 31 28 26 27 28 28 29 26 26 28 30 30 29 29 30 27 22 19 17 18 19 18 21 19 19 19 20 24 23 nan nan nan nan nan nan nan nan nan nan nan nan nan nan nan nan nan nan nan nan nan nan nan nan nan nan
46 47 47 44 44 46 46 49 50 49 47 45 42 38 35 33 34 34 35 35 32 29 29 30 30 29 30 35 37 33 28 24 23 26 29 30 30 27 27 30 32 32 29 29 31 30 27 24 21 20 21 20 20 22 26 24 20 20 21 23 nan nan nan nan nan nan nan nan nan nan nan nan nan nan nan nan nan nan nan nan nan nan nan nan nan
46 48 48 46 45 46 46 47 50 50 48 44 42 40 38 35 32 29 30 34 35 32 30 28 30 28 27 33 40 38 31 23 18 21 24 27 30 28 27 30 33 34 33 31 30 30 30 28 25 26 26 23 21 23 25 23 19 19 24 23 19 nan nan nan nan nan nan nan nan nan nan nan nan nan nan nan nan nan nan nan nan nan nan nan nan
47 48 48 47 45 45 46 47 48 49 47 45 40 35 37 39 37 32 29 30 34 34 32 30 30 28 25 29 36 34 31 27 24 23 23 23 23 25 27 31 32 34 34 33 31 30 30 29 27 29 28 24 22 22 22 22 22 27 28 23 21 24 nan nan nan nan nan nan nan nan nan nan nan nan nan nan nan nan nan nan nan nan nan nan nan
44 46 46 46 46 46 46 47 48 48 47 46 39 39 38 38 43 42 35 30 28 27 28 29 30 29 27 27 31 32 32 31 30 28 28 27 25 22 20 25 30 33 35 34 31 30 30 28 28 30 29 24 23 25 22 23 26 26 23 24 25 29 25 24 nan nan nan nan nan nan nan nan nan nan nan nan nan nan nan nan nan nan nan nan nan
41 42 43 43 45 47 47 47 47 47 46 43 39 41 41 40 44 47 45 38 32 28 25 26 29 31 30 30 31 34 35 33 32 33 33 30 28 25 24 26 28 28 31 34 32 30 29 26 26 28 28 25 25 28 24 27 27 27 25 26 25 27 26 23 21 nan nan nan nan nan nan nan nan nan nan nan nan nan nan nan nan nan nan nan nan
39 40 40 41 43 46 47 46 45 46 46 42 40 40 41 41 43 49 49 46 41 37 33 30 30 31 30 30 32 34 35 29 29 32 35 35 32 26 26 29 31 32 32 29 28 29 29 25 24 24 25 25 26 24 25 26 33 31 30 26 24 24 24 23 21 21 26 nan nan nan nan nan nan nan 16 16 19 20 19 nan nan nan nan nan nan
39 39 40 40 41 43 45 45 46 47 46 44 41 39 39 39 40 48 51 46 43 41 39 37 36 35 32 31 32 34 36 35 34 32 33 35 36 34 32 34 36 33 33 32 30 25 26 26 25 21 21 27 25 24 27 34 35 31 32 27 26 24 25 22 20 27 32 31 30 nan nan nan nan nan 16 14 20 19 21 22 nan nan nan nan nan
38 39 40 41 41 43 44 45 46 47 48 45 44 41 40 39 40 48 48 44 42 40 39 37 37 38 38 38 37 34 34 34 36 34 35 35 36 36 35 37 37 36 35 36 36 34 30 29 25 22 20 25 25 28 35 36 32 32 34 31 28 25 25 28 31 30 29 29 31 31 19 nan nan 23 16 16 nan 18 22 22 24 26 nan nan nan
39 39 40 42 43 44 45 46 47 46 48 48 48 46 44 44 45 50 48 44 40 39 38 38 36 36 37 38 37 35 31 30 30 30 32 36 38 38 37 38 40 39 36 34 33 34 32 30 28 24 23 25 27 31 36 37 35 36 40 43 40 34 31 29 21 28 26 28 30 30 23 26 30 28 20 25 23 18 22 25 26 29 29 nan nan
44 48 48 47 48 49 48 48 48 48 50 52 54 54 51 49 52 52 48 45 nan 37 nan 37 37 37 38 38 36 34 30 29 32 32 31 33 37 38 39 39 41 42 39 39 35 32 32 29 24 21 20 23 26 28 32 34 37 42 48 46 35 37 34 26 23 25 23 31 29 29 27 24 31 30 27 29 27 22 23 27 29 31 33 32 nan
46 48 48 49 50 50 51 52 52 53 55 61 72 74 70 63 56 53 51 48 nan nan nan nan 38 39 39 36 36 37 34 33 36 35 33 36 38 37 38 39 41 42 41 39 41 39 34 31 27 24 25 28 31 31 31 35 38 47 49 42 38 43 34 30 24 26 30 33 28 34 32 22 35 35 33 30 29 25 26 29 32 33 36 35 35
nan 47 49 50 50 51 51 52 55 55 55 60 69 72 74 75 69 59 55 50 nan nan nan nan nan nan 40 40 35 36 35 33 33 36 34 38 41 38 36 38 41 44 43 40 38 38 41 41 40 39 36 33 35 39 39 36 39 46 47 42 44 45 37 32 30 34 32 28 31 38 32 28 37 35 39 34 26 24 29 31 33 34 36 37 36
Wind_Direction
259 262 268 275 272 271 273 274 272 271 270 269 267 269 269 267 267 266 260 251 250 261 265 268 273 nan nan nan nan nan nan nan nan nan nan nan nan nan nan nan nan nan nan nan nan nan nan nan nan nan nan nan nan nan nan nan nan nan nan nan nan nan nan nan nan nan nan nan nan nan nan nan nan nan nan nan nan nan nan nan nan nan nan nan nan
255 256 265 269 267 267 271 276 281 280 278 279 274 272 276 270 267 267 268 262 257 263 267 269 274 279 282 nan nan nan nan nan nan nan nan nan nan nan nan nan nan nan nan nan nan nan nan nan nan nan nan nan nan nan nan nan nan nan nan nan nan nan nan nan nan nan nan nan nan nan nan nan nan nan nan nan nan nan nan nan nan nan nan nan nan
254 257 260 262 264 266 270 274 278 280 280 280 274 276 271 272 274 274 271 269 267 266 272 271 274 280 285 293 299 nan nan nan nan nan nan nan nan nan nan nan nan nan nan nan nan nan nan nan nan nan nan nan nan nan nan nan nan nan nan nan nan nan nan nan nan nan nan nan nan nan nan nan nan nan nan nan nan nan nan nan nan nan nan nan nan
249 254 258 261 262 264 265 271 275 273 274 272 273 272 269 267 267 267 268 268 267 265 268 272 275 283 290 295 296 nan nan nan nan nan nan nan nan nan nan nan nan nan nan nan nan nan nan nan nan nan nan nan nan nan nan nan nan nan nan nan nan nan nan nan nan nan nan nan nan nan nan nan nan nan nan nan nan nan nan nan nan nan nan nan nan
238 244 252 258 261 263 264 267 269 267 267 269 269 264 257 255 256 256 259 258 261 263 260 265 274 284 291 297 300 nan nan nan nan nan nan nan nan nan nan nan nan nan nan nan nan nan nan nan nan nan nan nan nan nan nan nan nan nan nan nan nan nan nan nan nan nan nan nan nan nan nan nan nan nan nan nan nan nan nan nan nan nan nan nan nan
231 233 240 250 257 261 263 263 262 258 259 260 261 259 257 256 255 256 257 262 263 265 266 268 276 281 289 297 302 nan nan nan nan nan nan nan nan nan nan nan nan nan nan nan nan nan nan nan nan nan nan nan nan nan nan nan nan nan nan nan nan nan nan nan nan nan nan nan nan nan nan nan nan nan nan nan nan nan nan nan nan nan nan nan nan
232 231 230 239 249 256 260 258 255 251 252 252 253 252 252 253 254 254 249 252 259 262 272 276 280 283 283 293 303 nan nan nan nan nan nan nan nan nan nan nan nan nan nan nan nan nan nan nan nan nan nan nan nan nan nan nan nan nan nan nan nan nan nan nan nan nan nan nan nan nan nan nan nan nan nan nan nan nan nan nan nan nan nan nan nan
249 244 233 232 240 250 255 253 249 243 242 244 244 245 243 241 nan 254 250 245 256 263 267 272 269 267 271 nan nan nan nan nan nan nan nan nan nan nan nan nan nan nan nan nan nan nan nan nan nan nan nan nan nan nan nan nan nan nan nan nan nan nan nan nan nan nan nan nan nan nan nan nan nan nan nan nan nan nan nan nan nan nan nan nan nan
248 249 244 237 234 239 243 245 242 236 237 238 240 240 242 234 236 243 255 nan 258 263 258 263 259 250 258 nan nan nan nan nan nan nan nan nan nan nan nan nan nan nan nan nan nan nan nan nan nan nan nan nan nan nan nan nan nan nan nan nan nan nan nan nan nan nan nan nan nan nan nan nan nan nan nan nan nan nan nan nan nan nan nan nan nan
250 253 254 246 230 218 219 235 235 229 229 236 237 233 236 233 233 232 249 nan nan 255 257 253 251 245 242 268 nan nan 314 nan nan nan nan nan nan nan nan nan nan nan nan nan nan nan nan nan nan nan nan nan nan nan nan nan nan nan nan nan nan nan nan nan nan nan nan nan nan nan nan nan nan nan nan nan nan nan nan nan nan nan nan nan nan
247 253 254 255 249 230 202 195 223 232 224 231 232 225 227 227 234 229 229 nan 253 250 259 257 250 247 247 262 nan nan 311 nan nan nan nan nan nan nan nan nan nan nan nan nan nan nan nan nan nan nan nan nan nan nan nan nan nan nan nan nan nan nan nan nan nan nan nan nan nan nan nan nan nan nan nan nan nan nan nan nan nan nan nan nan nan
245 246 251 254 253 238 216 197 198 214 226 224 224 218 219 226 224 233 233 nan nan 242 249 255 245 250 254 244 267 302 nan nan nan nan nan nan nan nan nan nan nan nan nan nan nan nan nan nan nan nan nan nan nan nan nan nan nan nan nan nan nan nan nan nan nan nan nan nan nan nan nan nan nan nan nan nan nan nan nan nan nan nan nan nan nan
249 251 249 245 244 236 224 211 205 200 208 219 222 215 207 221 227 221 231 nan nan nan 236 253 253 232 223 232 241 255 314 312 nan nan nan nan nan nan nan nan nan nan nan nan nan nan nan nan nan nan nan nan nan nan nan nan nan nan nan nan nan nan nan nan nan nan nan nan nan nan nan nan nan nan nan nan nan nan nan nan nan nan nan nan nan
253 250 244 238 234 231 226 218 213 205 195 211 221 213 207 207 221 216 212 228 nan nan nan 243 240 257 253 234 228 217 259 294 307 nan nan nan nan nan nan nan nan nan nan nan nan nan nan nan nan nan nan nan nan nan nan nan nan nan nan nan nan nan nan nan nan nan nan nan nan nan nan nan nan nan nan nan nan nan nan nan nan nan nan nan nan
249 244 238 231 226 229 225 220 217 214 204 196 216 214 211 211 215 222 210 204 210 216 nan nan nan 236 248 257 249 258 216 235 nan nan nan nan nan nan nan nan nan nan nan nan nan nan nan nan nan nan nan nan nan nan nan nan nan nan nan nan nan nan nan nan nan nan nan nan nan nan nan nan nan nan nan nan nan nan nan nan nan nan nan nan nan
245 240 238 235 232 230 226 217 210 215 212 202 203 217 217 213 211 210 220 208 205 204 213 228 237 255 246 245 252 nan 252 218 267 nan nan nan nan nan nan nan nan nan nan nan nan nan nan nan nan nan nan nan nan nan nan nan nan nan nan nan nan nan nan nan nan nan nan nan nan nan nan nan nan nan nan nan nan nan nan nan nan nan nan nan nan
249 245 241 238 236 233 230 220 212 208 214 209 206 216 222 224 223 216 212 215 201 207 204 211 228 255 257 245 239 245 nan nan nan nan nan nan nan nan nan nan nan nan nan nan nan nan nan nan nan nan nan nan nan nan nan nan nan nan nan nan nan nan nan nan nan nan nan nan nan nan nan nan nan nan nan nan nan nan nan nan nan nan nan nan nan
254 248 239 236 236 232 229 229 220 212 210 216 217 219 224 227 228 225 216 210 216 214 210 209 210 220 246 264 267 266 nan nan nan nan nan nan nan nan nan nan nan nan nan nan nan nan nan nan nan nan nan nan nan nan nan nan nan nan nan nan nan nan nan nan nan nan nan nan nan nan nan nan nan nan nan nan nan nan nan nan nan nan nan nan nan
252 247 238 234 234 229 225 226 226 218 207 209 220 225 226 229 231 230 226 220 218 218 222 225 215 200 215 219 nan nan nan nan nan nan nan nan nan nan nan nan nan nan nan nan nan nan nan nan nan nan nan nan nan nan nan nan nan nan nan nan nan nan nan nan nan nan nan nan nan nan nan nan nan nan nan nan nan nan nan nan nan nan nan nan nan
248 246 238 232 230 227 224 224 227 225 216 207 215 224 228 230 235 236 234 230 226 225 230 240 nan 233 233 229 nan nan nan nan nan nan nan nan nan nan nan nan nan nan nan nan nan nan nan nan nan nan nan nan nan nan nan nan nan nan nan nan nan nan nan nan nan nan nan nan nan nan nan nan nan nan nan nan nan nan nan nan nan nan nan nan nan
245 247 241 232 226 223 221 220 223 225 223 216 216 225 233 238 240 239 237 232 230 nan nan nan nan nan nan nan 226 227 nan nan nan nan nan nan nan nan nan nan nan nan nan nan nan nan nan nan nan nan nan nan nan nan nan nan nan nan nan nan nan nan nan nan nan nan nan nan nan nan nan nan nan nan nan nan nan nan nan nan nan nan nan nan nan
245 247 246 233 224 222 218 217 220 221 221 222 224 227 230 235 244 247 247 245 237 nan nan nan nan nan nan 250 nan nan 222 nan nan nan nan nan nan nan nan nan nan nan nan nan nan nan nan nan nan nan nan nan nan nan nan nan nan nan nan nan nan nan nan nan nan nan nan nan nan nan nan nan nan nan nan nan nan nan nan nan nan nan nan nan nan
251 251 250 235 224 223 220 218 219 220 221 224 225 229 232 234 236 244 252 254 245 240 232 231 nan nan 239 242 240 239 245 nan nan nan nan nan nan nan nan nan nan nan nan nan nan nan nan nan nan nan nan nan nan nan nan nan nan nan nan nan nan nan nan nan nan nan nan nan nan nan nan nan nan nan nan nan nan nan nan nan nan nan nan nan nan
254 257 252 233 222 221 221 221 222 223 226 228 228 227 228 231 233 237 242 248 246 244 239 234 236 nan nan 235 237 236 234 nan nan nan nan nan nan nan nan nan nan nan nan nan nan nan nan nan nan nan nan nan nan nan nan nan nan nan nan nan nan nan nan nan nan nan nan nan nan nan nan nan nan nan nan nan nan nan nan nan nan nan nan nan nan
250 257 248 231 223 222 223 224 224 225 226 226 227 231 229 227 229 231 236 242 245 245 242 242 nan nan nan nan nan nan nan nan nan nan nan nan nan nan nan nan nan nan nan nan nan nan nan nan nan nan nan nan nan nan nan nan nan nan nan nan nan nan nan nan nan nan nan nan nan nan nan nan nan nan nan nan nan nan nan nan nan nan nan nan nan
250 244 237 230 227 229 229 231 230 232 239 237 237 238 239 235 232 232 234 238 244 248 245 244 243 nan nan nan nan nan nan nan nan nan nan nan nan nan nan nan nan nan nan nan nan nan nan nan nan nan nan nan nan nan nan nan nan nan nan nan nan nan nan nan nan nan nan nan nan nan nan nan nan nan nan nan nan nan nan nan nan nan nan nan nan
249 243 229 221 227 233 234 236 237 238 242 243 242 243 242 238 236 236 236 238 244 247 245 245 243 244 nan nan nan nan nan nan nan nan nan nan nan nan 275 267 nan nan nan nan nan nan nan nan nan nan nan nan nan nan nan nan nan nan nan nan nan nan nan nan nan nan nan nan nan nan nan nan nan nan nan nan nan nan nan nan nan nan nan nan nan
238 240 239 237 233 233 236 236 235 235 233 228 227 227 227 229 232 235 236 236 240 243 242 244 242 244 249 nan nan nan nan nan nan 247 nan nan nan 263 273 nan nan nan nan nan nan nan nan nan nan nan nan nan nan nan nan nan nan nan nan nan nan nan nan nan nan nan nan nan nan nan nan nan nan nan nan nan nan nan nan nan nan nan nan nan nan
236 238 239 239 240 240 238 236 240 245 250 247 242 235 229 229 230 232 233 234 235 235 236 238 238 237 239 249 249 nan nan nan nan 248 252 nan nan nan 270 nan nan nan nan nan 336 nan nan nan nan nan nan nan nan nan nan nan nan nan nan nan nan nan nan nan nan nan nan nan nan nan nan nan nan nan nan nan nan nan nan nan nan nan nan nan nan
238 237 238 241 245 247 244 241 242 243 247 249 249 248 242 233 230 231 232 235 235 235 237 239 241 240 237 240 246 248 nan nan nan nan nan nan nan nan nan nan nan 316 nan nan nan nan nan nan nan nan nan nan nan nan nan nan nan nan nan nan nan nan nan nan nan nan nan nan nan nan nan nan nan nan nan nan nan nan nan nan nan nan nan nan nan
237 239 241 243 245 245 244 244 247 248 248 247 246 243 243 239 237 235 233 233 232 233 237 241 244 247 245 242 245 248 254 257 nan nan nan nan nan nan nan nan nan nan nan nan nan nan nan nan nan nan nan nan nan nan nan nan nan nan nan nan nan nan nan nan nan nan nan nan nan nan nan nan nan nan nan nan nan nan nan nan nan nan nan nan nan
238 237 239 242 245 245 245 248 251 250 249 249 250 250 250 245 241 239 236 235 232 230 233 239 243 247 248 246 245 248 253 256 259 nan nan nan nan nan nan nan nan nan nan 271 290 304 290 nan nan nan nan nan nan nan nan nan nan nan nan nan nan nan nan nan nan nan nan nan nan nan nan nan nan nan nan nan nan nan nan nan nan nan nan nan nan
241 241 242 243 242 242 243 248 255 255 253 253 252 252 254 251 244 242 242 241 237 232 232 236 243 246 248 246 243 244 250 255 258 261 nan nan nan nan nan nan nan nan nan 269 279 270 250 273 291 307 nan nan nan nan nan nan nan nan nan nan nan nan nan nan nan nan nan nan nan nan nan nan nan nan nan nan nan nan nan nan nan nan nan nan nan
243 244 243 244 244 244 242 238 241 244 248 251 254 254 256 252 241 240 247 246 241 239 239 236 241 246 248 249 244 241 244 248 254 260 263 263 nan nan nan nan nan nan 254 258 262 266 267 259 277 281 289 nan nan nan nan nan nan nan nan nan nan nan nan nan nan nan nan nan nan nan nan nan nan nan nan nan nan nan nan nan nan nan nan nan nan
242 245 245 244 244 245 247 247 248 243 240 242 245 246 249 251 241 238 248 248 240 241 246 242 241 243 244 248 248 244 241 239 244 252 257 263 263 256 248 nan nan nan nan 253 251 258 268 269 272 279 290 295 nan nan nan nan nan nan nan nan nan nan nan nan nan nan nan nan nan nan nan nan nan nan nan nan nan nan nan nan nan nan nan nan nan
238 241 244 244 242 239 239 240 241 244 245 243 248 251 249 249 244 240 248 248 236 234 241 243 242 240 240 244 246 248 246 239 236 243 251 258 264 259 252 249 248 nan 248 247 246 249 258 266 267 281 282 290 292 291 nan nan nan nan nan nan nan nan nan nan nan nan nan nan nan nan nan nan nan nan nan nan nan nan nan nan nan nan nan nan nan
231 235 237 237 236 235 234 235 241 244 245 242 242 244 245 246 246 244 249 249 237 230 232 239 244 241 237 240 244 248 250 246 239 240 246 254 259 261 258 253 252 250 247 248 245 243 248 263 264 267 274 277 277 278 287 293 nan nan nan nan nan nan nan nan nan nan nan nan nan nan nan nan nan nan nan nan nan nan nan nan nan nan nan nan nan
231 232 236 234 232 232 233 236 241 243 244 246 247 249 252 254 253 249 249 249 242 235 236 240 246 246 240 238 242 249 251 252 247 245 246 250 253 258 261 260 256 252 250 248 248 246 244 247 258 261 266 278 272 270 274 286 291 nan nan nan nan nan nan nan nan nan nan nan nan nan nan nan nan nan nan nan nan nan nan nan nan nan nan nan nan
233 232 235 235 233 231 231 236 241 244 245 248 252 255 257 259 256 251 248 249 249 244 241 241 244 249 245 236 237 246 251 251 251 251 252 251 251 253 258 260 260 257 254 251 250 249 246 243 246 256 263 265 274 278 269 278 288 292 297 nan nan nan nan nan nan nan nan nan nan nan nan nan nan nan nan nan nan nan nan nan nan nan nan nan nan
233 233 235 237 236 235 232 235 241 244 246 248 251 253 253 255 258 257 254 254 254 250 245 245 247 253 248 234 231 239 246 248 253 254 253 252 252 250 250 254 259 260 257 253 252 251 248 245 247 250 256 262 260 262 264 269 269 263 277 289 nan nan nan nan nan nan nan nan nan nan nan nan nan nan nan nan nan nan nan nan nan nan nan nan nan
231 231 232 233 232 233 234 235 237 240 243 245 245 245 245 249 254 259 259 259 256 247 243 245 249 253 248 234 229 236 243 246 255 257 256 256 255 254 251 252 255 259 258 256 255 254 249 248 244 247 252 256 263 272 273 276 281 285 280 283 289 nan nan nan nan nan nan nan nan nan nan nan nan nan nan nan nan nan nan nan nan nan nan nan nan
231 231 231 232 232 232 233 234 237 239 241 242 246 250 250 248 250 252 256 257 254 247 242 241 242 244 243 233 228 234 243 246 248 253 258 260 263 260 255 254 255 257 259 259 259 258 255 251 248 250 252 255 264 271 276 278 275 264 272 282 286 281 nan nan nan nan nan nan nan nan nan nan nan nan nan nan nan nan nan nan nan nan nan nan nan
231 235 236 235 234 234 233 234 236 240 241 242 244 248 249 250 248 249 250 250 251 252 251 248 243 241 238 231 228 231 238 241 243 250 256 261 261 259 257 259 259 259 257 260 259 260 259 254 249 251 252 253 258 262 266 270 269 276 277 277 279 278 285 284 nan nan nan nan nan nan nan nan nan nan nan nan nan nan nan nan nan nan nan nan nan
231 237 239 239 239 238 237 235 235 237 240 240 239 240 244 246 246 245 245 245 248 254 257 255 251 244 237 233 230 231 236 240 240 242 248 253 256 255 253 251 249 255 263 263 260 258 259 256 253 254 253 252 252 256 259 264 269 267 268 271 275 280 282 284 282 nan nan nan nan nan nan nan nan nan nan nan nan nan nan nan nan nan nan nan nan
235 237 239 240 241 241 241 239 236 236 237 239 240 241 243 244 244 247 245 244 245 249 254 254 252 249 243 236 232 232 234 239 241 240 244 248 251 250 247 250 249 243 240 251 266 265 259 259 257 257 262 257 250 248 259 265 262 267 264 266 268 272 279 284 281 285 278 nan nan nan nan nan nan nan 323 336 327 327 336 nan nan nan nan nan nan
234 236 239 240 241 242 243 242 238 235 235 236 239 239 242 244 245 248 245 244 243 244 246 247 248 250 248 241 234 230 230 233 237 239 241 243 245 244 241 243 246 246 247 244 240 247 257 258 261 261 261 258 247 240 248 255 261 266 268 268 266 267 269 280 288 274 272 288 296 nan nan nan nan nan 317 326 310 320 325 336 nan nan nan nan nan
234 235 236 239 240 241 240 240 239 235 233 230 234 237 238 239 241 248 246 247 243 240 240 242 243 242 239 235 235 231 229 229 232 237 238 238 238 239 240 242 243 243 244 245 248 249 247 249 255 256 253 254 244 236 240 250 258 262 266 268 269 270 265 256 254 265 274 282 285 283 296 nan nan 298 311 305 nan 313 314 322 332 338 nan nan nan
235 238 238 242 241 239 238 238 239 236 232 227 228 229 230 232 236 242 242 242 240 237 236 235 238 241 240 237 234 237 235 230 228 234 238 236 234 235 238 239 238 237 239 243 248 250 250 248 247 249 248 249 248 243 245 249 251 254 254 251 250 254 258 262 266 263 271 275 284 291 285 284 291 301 301 291 296 308 306 309 324 336 339 nan nan
236 236 237 239 240 238 236 236 234 235 233 230 228 228 228 227 232 240 239 238 nan 234 nan 234 235 237 238 240 240 239 241 238 233 232 235 240 235 236 237 237 234 230 230 235 241 247 251 251 246 240 238 244 251 255 258 261 256 255 256 257 257 261 265 262 258 260 263 272 279 288 284 284 289 296 292 291 305 311 312 316 314 326 338 341 nan
239 237 237 239 240 239 237 236 233 231 232 229 228 228 226 224 229 236 237 236 nan nan nan nan 239 239 242 249 249 245 242 242 247 241 234 240 239 237 237 236 230 226 226 230 234 239 247 249 247 243 238 235 237 244 257 264 265 259 259 260 259 259 260 261 258 259 255 266 277 282 276 285 279 284 288 284 292 305 314 314 317 320 328 334 340
nan 242 239 239 239 240 239 237 232 231 231 230 230 230 232 232 231 232 232 236 nan nan nan nan nan nan 245 250 255 252 246 241 251 252 249 247 243 242 240 237 229 225 227 230 233 237 240 240 237 237 233 236 241 247 249 253 260 262 260 258 255 258 258 258 256 252 250 256 270 280 278 272 277 281 285 281 290 299 305 312 317 319 318 317 321